STARLINK-1174, 45075

Orbit data source: Space-Track

STARLINK-1174, 45075 is a payload satellite owned by SpaceX/Seattle (US) in LEO that was launched on Wed, 29 Jan 2020 UTC via an FALCON 9 launch vehicle from the Air Force Eastern Test Range (AFETR). Payloads include a variety of satellites, spacecraft, and rockets equipped with specific instruments for various scientific and technological missions. These include communications satellites like Starlink; space stations such as the ISS; scientific satellites like the Hubble; Earth observation satellites from companies like Planet Labs, Umbra, and HawkEye 360; GPS; miniature CubeSats for education and research; and military/defense satellites.

Loading next visibility...
STARLINK-1174 details
Identifier
45075, 2020-006AH
Orbit
LEO
Last TLE update22 hours ago
Origin
Flag of USSpaceX/Seattle (US)
ManufacturerSpaceX/Seattle
MissionOperational Commercial Communications
Bus & MotorSTARLINK, Unknown motor
Mass260 kg wet, ~248 kg dry
Launch date (UTC)
2020-01-29 (5 years ago)
Launch vehicle
FALCON 9
Launch site
Air Force Eastern Test Range (AFETR)
Object type
Payload
Rocket body
Debris
Shape & HBRBox + 1 Pan, 8.86 m
Radar Cross Section13.562 m², Large (>1 m²)

Expand to show TLE details & history

TLE from 22 hours ago
0 STARLINK-1174
1 45075U 20006AH  24360.48842592  .00024460  00000-0  16561-2 0  9993
2 45075  53.0545  78.2673 0001424  86.9713 273.1439 15.06381570270546
Epoch: 2024-12-25T11:43Z
Definitive object data (Epoch: 2024-12-25T11:43:19.999Z)
Latitude-0.00001°
Longitude167.95251°
Altitude548.093 km
Speed7.589 km/s
True Right ascension05h 13m 04s
True Declination0° 00' 00"
Sunlit
Object was in full shadow at TLE epoch
Visualization TLE readout
Latitude29.04378°
Longitude-171.70858°
Altitude548.062 km
Speed7.592 km/s
Apparent Right ascension03h 01m 24s
Apparent Declination-9° 38' 49"
Sunlit
Object is in full shadow
Visualization observer readout
Local Sidereal Time09:31:53
Azimuth267.383° W
Elevation-11.992°
Doppler factor1
Orbital elements
Apogee altitude548.525 km
Perigee altitude546.553 km
Semi-major axis6,925.676 km
Eccentricity0.0001424
Inclination53.0545°
RAAN78.2673°
Arg. of periapsis86.9713°
True anomaly273.12761°
Mean anomaly273.1439°
Eccentric anomaly273.13575°
Mean motion3.76574 °/min
BSTAR0.0016561
Orbital period95.6 mins
Loading maneuver chart data...
Loading historical data...
Loading historical data...
Loading historical data...
Loading historical data...
Loading historical data...
Loading historical data...
Loading historical data...

STARLINK-1174 Visibility forecast

Observer location: undefined°, undefined

Span
Click to sort rows by Start time (UTC) header in descending order
Start Az.
Max El. time (UTC)
Max El. Az.
Max El.
End time (UTC)
End Az.
4 mins2024-12-26 10:18:44.739Z309.527° NW2024-12-26 10:20:44.739Z341.841° N16.095°2024-12-26 10:22:44.739Z15.442° NNE
5 mins2024-12-26 13:40:44.739Z348.547° N2024-12-26 13:42:44.739Z36.718° NE24.886°2024-12-26 13:45:44.739Z86.083° E
6 mins2024-12-26 15:19:44.739Z292.787° NW2024-12-26 15:21:44.739Z244.865° WSW37.68°2024-12-26 15:25:44.739Z149.437° SSE
5 mins2024-12-27 06:52:44.739Z177.67° S2024-12-27 06:54:44.739Z135.861° SSE25.527°2024-12-27 06:57:44.739Z76.59° E
6 mins2024-12-27 08:31:44.739Z264.158° W2024-12-27 08:34:44.739Z345.138° N32.867°2024-12-27 08:37:44.739Z36.912° NE
|